Location: Borojevi?i
(45.0486°N, 16.2297°E)
Time: 09:53:57
(UTC+00:00)

Cosmos 1238 Rocket - Pass Details

Date: 08 August 2020
Orbit: 375 x 1027 km, 82.9° (Epoch: 20 September)

Event Time Altitude Azimuth Distance (km) Brightness Sun altitude
Exits shadow 20:28:59 58° 27° (NNE) 459 2.4 -20.1°
Drops below altitude 10° 20:31:28 10° 11° (N) 1,401 5.4 -20.4°
Sets 20:33:25 0° 10° (N) 2,255 6.6 -20.6°
